Location: Lombard
(41.8800°N, 88.0080°W)
Time: 05:02:37
(UTC-05:00)

Vanguard 2 Rocket - Pass Details

Date: 26 February 2024
Orbit: 555 x 3307 km, 32.9° (Epoch: 12 April)

Event Time Altitude Azimuth Distance (km) Brightness Sun altitude
Rises 12:56:03 0° 219° (SW) 3,708 10.8 38.1°
Reaches altitude 10° 12:58:32 10° 209° (SSW) 3,037 10.8 38.0°
Maximum altitude 13:05:18 33° 148° (SSE) 2,453 10.0 37.6°
Drops below altitude 10° 13:16:09 10° 91° (E) 4,935 10.6 36.9°
Sets 13:21:28 0° 84° (E) 6,395 11.0 36.5°
